Time,TemperatureF,DewpointF,PressureIn,WindDirection,WindDirectionDegrees,WindSpeedMPH,WindSpeedGustMPH,Humidity,HourlyPrecipIn,Conditions,Clouds,dailyrainin,SoftwareType,DateUTC
2013-01-31 05:00:00,36.0,35.0,-100.00,SW,221,5.0,-999.0,95,0.00,,,-99.99,,2013-01-31 13:00:00,
2013-01-31 06:00:00,35.0,34.0,-100.00,SSE,164,4.0,-999.0,95,0.00,,,-99.99,,2013-01-31 14:00:00,
2013-01-31 06:22:00,35.0,34.0,-100.00,SSE,164,4.0,-999.0,95,0.00,,,-99.99,,2013-01-31 14:22:00,
2013-01-31 06:32:00,35.0,34.0,-100.00,SSE,164,4.0,-999.0,95,0.00,,,-99.99,,2013-01-31 14:32:00,
2013-01-31 06:42:00,35.0,34.0,-100.00,SSE,164,4.0,-999.0,95,0.00,,,-99.99,,2013-01-31 14:42:00,
2013-01-31 06:52:00,35.0,34.0,-100.00,SSE,164,4.0,-999.0,95,0.00,,,-99.99,,2013-01-31 14:52:00,
2013-01-31 07:00:00,33.0,32.0,-100.00,South,173,3.0,-999.0,95,0.00,,,-99.99,,2013-01-31 15:00:00,
2013-01-31 07:23:00,33.0,32.0,-100.00,South,173,3.0,-999.0,95,0.00,,,-99.99,,2013-01-31 15:23:00,
2013-01-31 07:32:00,33.0,32.0,-100.00,South,173,3.0,-999.0,95,0.00,,,-99.99,,2013-01-31 15:32:00,
2013-01-31 07:42:00,33.0,32.0,-100.00,South,173,3.0,-999.0,95,0.00,,,-99.99,,2013-01-31 15:42:00,
2013-01-31 07:52:00,33.0,32.0,-100.00,South,173,3.0,-999.0,95,0.00,,,-99.99,,2013-01-31 15:52:00,
2013-01-31 08:00:00,36.0,35.0,-100.00,SE,141,3.0,-999.0,95,0.00,,,-99.99,,2013-01-31 16:00:00,
2013-01-31 08:22:00,36.0,35.0,-100.00,SE,141,3.0,-999.0,95,0.00,,,-99.99,,2013-01-31 16:22:00,
2013-01-31 08:33:00,36.0,35.0,-100.00,SE,141,3.0,-999.0,95,0.00,,,-99.99,,2013-01-31 16:33:00,
2013-01-31 08:42:00,36.0,35.0,-100.00,SE,141,3.0,-999.0,95,0.00,,,-99.99,,2013-01-31 16:42:00,
2013-01-31 08:52:00,36.0,35.0,-100.00,SE,141,3.0,-999.0,95,0.00,,,-99.99,,2013-01-31 16:52:00,
2013-01-31 09:00:00,36.0,34.0,-100.00,SSE,160,4.0,-999.0,95,0.00,,,-99.99,,2013-01-31 17:00:00,
2013-01-31 09:23:00,36.0,34.0,-100.00,SSE,160,4.0,-999.0,95,0.00,,,-99.99,,2013-01-31 17:23:00,
2013-01-31 09:32:00,36.0,34.0,-100.00,SSE,160,4.0,-999.0,95,0.00,,,-99.99,,2013-01-31 17:32:00,
2013-01-31 09:44:00,36.0,34.0,-100.00,SSE,160,4.0,-999.0,95,0.00,,,-99.99,,2013-01-31 17:44:00,
2013-01-31 09:53:00,36.0,34.0,-100.00,SSE,160,4.0,-999.0,95,0.00,,,-99.99,,2013-01-31 17:53:00,
2013-01-31 10:00:00,40.0,39.0,-100.00,SSE,166,4.0,-999.0,95,0.00,,,-99.99,,2013-01-31 18:00:00,
2013-01-31 10:22:00,40.0,39.0,-100.00,SSE,166,4.0,-999.0,95,0.00,,,-99.99,,2013-01-31 18:22:00,
2013-01-31 10:32:00,40.0,39.0,-100.00,SSE,166,4.0,-999.0,95,0.00,,,-99.99,,2013-01-31 18:32:00,
2013-01-31 10:43:00,40.0,39.0,-100.00,SSE,166,4.0,-999.0,95,0.00,,,-99.99,,2013-01-31 18:43:00,
2013-01-31 10:52:00,40.0,39.0,-100.00,SSE,166,4.0,-999.0,95,0.00,,,-99.99,,2013-01-31 18:52:00,
2013-01-31 11:00:00,46.0,43.0,-100.00,South,170,4.0,-999.0,87,0.00,,,-99.99,,2013-01-31 19:00:00,
2013-01-31 11:22:00,46.0,43.0,-100.00,South,170,4.0,-999.0,87,0.00,,,-99.99,,2013-01-31 19:22:00,
2013-01-31 11:33:00,46.0,43.0,-100.00,South,170,4.0,-999.0,87,0.00,,,-99.99,,2013-01-31 19:33:00,
2013-01-31 11:42:00,46.0,43.0,-100.00,South,170,4.0,-999.0,87,0.00,,,-99.99,,2013-01-31 19:42:00,
2013-01-31 11:52:00,46.0,43.0,-100.00,South,170,4.0,-999.0,87,0.00,,,-99.99,,2013-01-31 19:52:00,
2013-01-31 12:00:00,57.0,46.0,-100.00,SE,141,3.0,-999.0,66,0.00,,,-99.99,,2013-01-31 20:00:00,
2013-01-31 12:22:00,57.0,46.0,-100.00,SE,141,3.0,-999.0,66,0.00,,,-99.99,,2013-01-31 20:22:00,
2013-01-31 12:32:00,57.0,46.0,-100.00,SE,141,3.0,-999.0,66,0.00,,,-99.99,,2013-01-31 20:32:00,
2013-01-31 12:42:00,57.0,46.0,-100.00,SE,141,3.0,-999.0,66,0.00,,,-99.99,,2013-01-31 20:42:00,
2013-01-31 12:52:00,57.0,46.0,-100.00,SE,141,3.0,-999.0,66,0.00,,,-99.99,,2013-01-31 20:52:00,
2013-01-31 13:00:00,62.0,40.0,-100.00,NNW,341,1.0,-999.0,43,0.00,,,-99.99,,2013-01-31 21:00:00,
2013-01-31 13:22:00,62.0,40.0,-100.00,NNW,341,1.0,-999.0,43,0.00,,,-99.99,,2013-01-31 21:22:00,
2013-01-31 13:32:00,62.0,40.0,-100.00,NNW,341,1.0,-999.0,43,0.00,,,-99.99,,2013-01-31 21:32:00,
2013-01-31 13:42:00,62.0,40.0,-100.00,NNW,341,1.0,-999.0,43,0.00,,,-99.99,,2013-01-31 21:42:00,
2013-01-31 13:52:00,62.0,40.0,-100.00,NNW,341,1.0,-999.0,43,0.00,,,-99.99,,2013-01-31 21:52:00,
2013-01-31 14:00:00,66.0,41.0,-100.00,NNW,330,3.0,-999.0,39,0.00,,,-99.99,,2013-01-31 22:00:00,
2013-01-31 14:22:00,66.0,41.0,-100.00,NNW,330,3.0,-999.0,39,0.00,,,-99.99,,2013-01-31 22:22:00,
2013-01-31 14:33:00,66.0,41.0,-100.00,NNW,330,3.0,-999.0,39,0.00,,,-99.99,,2013-01-31 22:33:00,
2013-01-31 14:42:00,66.0,41.0,-100.00,NNW,330,3.0,-999.0,39,0.00,,,-99.99,,2013-01-31 22:42:00,
2013-01-31 14:52:00,66.0,41.0,-100.00,NNW,330,3.0,-999.0,39,0.00,,,-99.99,,2013-01-31 22:52:00,
2013-01-31 15:00:00,68.0,41.0,-100.00,NNW,339,1.0,-999.0,38,0.00,,,-99.99,,2013-01-31 23:00:00,
2013-01-31 15:22:00,68.0,41.0,-100.00,NNW,339,1.0,-999.0,38,0.00,,,-99.99,,2013-01-31 23:22:00,
2013-01-31 15:32:00,68.0,41.0,-100.00,NNW,339,1.0,-999.0,38,0.00,,,-99.99,,2013-01-31 23:32:00,
2013-01-31 15:42:00,68.0,41.0,-100.00,NNW,339,1.0,-999.0,38,0.00,,,-99.99,,2013-01-31 23:42:00,
2013-01-31 15:52:00,68.0,41.0,-100.00,NNW,339,1.0,-999.0,38,0.00,,,-99.99,,2013-01-31 23:52:00,
2013-01-31 16:00:00,65.0,41.0,-100.00,NNW,339,1.0,-999.0,41,0.00,,,-99.99,,2013-02-01 00:00:00,
2013-01-31 16:22:00,65.0,41.0,-100.00,NNW,339,1.0,-999.0,41,0.00,,,-99.99,,2013-02-01 00:22:00,
2013-01-31 16:32:00,65.0,41.0,-100.00,NNW,339,1.0,-999.0,41,0.00,,,-99.99,,2013-02-01 00:32:00,
2013-01-31 16:42:00,65.0,41.0,-100.00,NNW,339,1.0,-999.0,41,0.00,,,-99.99,,2013-02-01 00:42:00,
2013-01-31 16:52:00,65.0,41.0,-100.00,NNW,339,1.0,-999.0,41,0.00,,,-99.99,,2013-02-01 00:52:00,
2013-01-31 17:00:00,63.0,41.0,-100.00,NNW,337,1.0,-999.0,43,0.00,,,-99.99,,2013-02-01 01:00:00,
2013-01-31 17:22:00,63.0,41.0,-100.00,NNW,337,1.0,-999.0,43,0.00,,,-99.99,,2013-02-01 01:22:00,
2013-01-31 17:32:00,63.0,41.0,-100.00,NNW,337,1.0,-999.0,43,0.00,,,-99.99,,2013-02-01 01:32:00,
2013-01-31 17:42:00,63.0,41.0,-100.00,NNW,337,1.0,-999.0,43,0.00,,,-99.99,,2013-02-01 01:42:00,
2013-01-31 17:52:00,63.0,41.0,-100.00,NNW,337,1.0,-999.0,43,0.00,,,-99.99,,2013-02-01 01:52:00,
2013-01-31 23:00:00,42.0,40.0,-100.00,SSE,153,2.0,-999.0,92,0.00,,,-99.99,,2013-02-01 07:00:00,
2013-01-31 23:22:00,42.0,40.0,-100.00,SSE,153,2.0,-999.0,92,0.00,,,-99.99,,2013-02-01 07:22:00,
2013-01-31 23:32:00,42.0,40.0,-100.00,SSE,153,2.0,-999.0,92,0.00,,,-99.99,,2013-02-01 07:32:00,
2013-01-31 23:42:00,42.0,40.0,-100.00,SSE,153,2.0,-999.0,92,0.00,,,-99.99,,2013-02-01 07:42:00,
2013-01-31 23:52:00,42.0,40.0,-100.00,SSE,153,2.0,-999.0,92,0.00,,,-99.99,,2013-02-01 07:52:00,